Location: Kapla
(46.2483°N, 15.0094°E)
Time: 14:54:39
(UTC+00:00)

CZ-2C R/B - Pass Details

Date: 03 March 2021
Orbit: 703 x 908 km, 98.1° (Epoch: 19 April)

Event Time Altitude Azimuth Distance (km) Brightness Sun altitude
Rises 17:20:03 0° 172° (S) 3,510 6.4 -6.1°
Reaches altitude 10° 17:22:31 10° 175° (S) 2,560 5.7 -6.6°
Maximum altitude 17:28:13 68° 258° (WSW) 937 3.7 -7.6°
Drops below altitude 10° 17:33:44 10° 342° (NNW) 2,474 5.9 -8.5°
Sets 17:36:04 0° 345° (NNW) 3,383 6.5 -8.9°
